Location: Caltech
(34.1382°N, 118.1253°W)
Time: 09:23:32
(UTC-07:00)

SL-08 R/B - Visible Passes

Search period start: 02 August 2015 00:00
Search period end: 12 August 2015 00:00
Orbit: 674 x 742 km, 98.2° (Epoch: 01 August)

Date Brightness Start Highest point End Pass type
(mag) Time Alt. Az. Time Alt. Az. Time Alt. Az.
02 Aug 5.9 01:49:36 15° ENE 01:49:36 15° ENE 01:51:51 10° NNE visible
02 Aug 4.6 03:28:36 30° NW 03:28:36 30° NW 03:31:13 10° NNW visible
03 Aug 4.9 02:34:43 34° NNE 02:34:43 34° NNE 02:37:48 10° N visible
03 Aug 5.5 04:13:44 11° WNW 04:13:44 11° WNW 04:14:13 10° NW visible
04 Aug 6.1 01:40:50 12° ENE 01:40:50 12° ENE 01:42:13 10° NE visible
04 Aug 4.6 03:19:51 31° NNW 03:19:51 31° NNW 03:22:26 10° NNW visible
05 Aug 5.2 02:25:58 28° NE 02:25:58 28° NE 02:28:47 10° N visible
05 Aug 5.4 04:04:59 13° WNW 04:04:59 13° WNW 04:05:50 10° NW visible
06 Aug 4.7 03:11:06 32° NNW 03:11:06 32° NNW 03:13:36 10° NNW visible
07 Aug 5.4 02:17:13 23° NE 02:17:13 23° NE 02:19:41 10° NNE visible
07 Aug 5.4 03:56:13 15° NW 03:56:13 15° NW 03:57:19 10° NW visible
08 Aug 4.8 03:02:20 31° N 03:02:20 31° N 03:04:45 10° N visible
09 Aug 5.7 02:08:27 19° NE 02:08:27 19° NE 02:10:33 10° NNE visible
09 Aug 5.3 03:47:28 17° NW 03:47:28 17° NW 03:48:43 10° NW visible
10 Aug 5.0 02:53:35 28° N 02:53:35 28° N 02:55:50 10° N visible
11 Aug 5.9 01:59:42 16° NE 01:59:42 16° NE 02:01:18 10° NNE visible
11 Aug 5.3 03:38:42 18° NW 03:38:42 18° NW 03:40:02 10° NNW visible
